Tracking 26325 objects as of 29-Nov-2022
HD Live streaming from Space Station
objects crossing your sky now

COSMOS 1375 DEB

Track COSMOS 1375 DEB now!
10-day predictions


NORAD ID: 17806
Int'l Code: 1982-055AY
Perigee: 934.3 km
Apogee: 1,003.9 km
Inclination: 65.8 °
Period: 104.3 minutes
Semi major axis: 7340 km
RCS: 0.0072 m2 (small)
Launch date: June 6, 1982
Source: Commonwealth of Independent States (former USSR) (CIS)
Launch site: PLESETSK MISSILE AND SPACE COMPLEX (PKMTR)

Note: This is SATELLITE DEBRIS
aabbcc
Your satellite tracking list
Your tracking list is empty




NASA's NSSDC Master Catalog

Two Line Element Set (TLE):
1 17806U 82055AY  22332.60321122 -.00000043  00000-0  36361-4 0  9992
2 17806  65.8356  69.5554 0047448  87.2373  19.3476 13.80542378867730
Source of the keplerian elements: AFSPC